Satellite-Ground Cal/Val Site Overpasses Predictions

Prediction of Satellite NPP Overpassing Cal/Val Site: Antarctic Dome C

Ground Cal/Val Site Location: Latitude: -75.10, Longitude: 123.35; Satellite-Ground Site NADIR distance within 100 km.

Table of predicted overpasses for the next 14.0 days since TLE Epoch: 9/16/2023
Interval Starting Time Ending Time Minimum Distance Time Minimum Distance (km)
1 09/16/2023 15:02:16 09/16/2023 15:02:40 09/16/2023 15:02:28 56.55
2 09/17/2023 14:43:25 09/17/2023 14:43:50 09/17/2023 14:43:37 52.72
3 09/18/2023 07:45:06 09/18/2023 07:45:25 09/18/2023 07:45:16 73.69
4 09/19/2023 07:26:11 09/19/2023 07:26:39 09/19/2023 07:26:25 34.26
5 09/21/2023 15:08:35 09/21/2023 15:08:44 09/21/2023 15:08:39 94.04
6 09/22/2023 14:49:34 09/22/2023 14:50:03 09/22/2023 14:49:49 17.36
7 09/24/2023 07:32:22 09/24/2023 07:32:51 09/24/2023 07:32:36 2.56
8 09/27/2023 14:55:45 09/27/2023 14:56:14 09/27/2023 14:56:00 18.97
9 09/28/2023 14:37:02 09/28/2023 14:37:15 09/28/2023 14:37:09 88.16
